Notices

What's New in latest Release from April 7th, 2021:

- Updated Glossary, including Speed of Maximum Gust, and Total Hourly Precipitation

- Updated national and regional climate services offices contacts and prices information

- Addition of station inventory lists for 1981-2010, 1971-2000, and 1961-1990 Normals.

If you haven't already, please take our survey and provide feedback about our website: https://eccc.sondage-survey.ca/f/LanguageSelection.aspx?s=442ca660-fcf1-47c0-95a9-59707d6fd709

Hourly Data Report for January 18, 2021

STE-ANNE-DE-BELLEVUE 1
QUEBEC
Current Station Operator: ECCC - MSC

45°25'38.000" N
73°55'45.000" W
39.00 m
702FHL8
71377
WVQ

Download Data

Hourly Data (January 2021)
Hourly Data Report for January 18, 2021
TIME
LST
Temp Definition
°C
Dew Point Definition
°C
Rel Hum Definition
%
Precip. Amount Definition
mm

Wind Dir Definition
10's deg

Wind Spd Definition
km/h
Visibility Definition
km
Stn Press Definition
kPa
Hmdx Definition


Wind Chill Definition


Weather Definition


00:00 -4.8 -7.4 82 0.0 27 18   99.56   -11 LegendNANA
01:00 -4.9 -7.7 80 0.0 27 12   99.56   -10 LegendNANA
02:00 -4.9 -7.8 80 0.0 26 16   99.61   -11 LegendNANA
03:00 -5.2 -7.9 81 0.0 26 14   99.68   -11 LegendNANA
04:00 -6.3 -8.8 83 0.0 26 16   99.69   -12 LegendNANA
05:00 -6.6 -8.7 85 0.0 25 17   99.70   -13 LegendNANA
06:00 -7.2 -9.2 86 0.0 25 17   99.77   -14 LegendNANA
07:00 -7.4 -9.3 86 0.0 25 14   99.82   -13 LegendNANA
08:00 -7.6 -9.6 85 0.0 25 16   99.87   -14 LegendNANA
09:00 -7.5 -9.8 84 0.0 26 13   99.94   -13 LegendNANA
10:00 -7.5 -10.0 83 0.0 26 16   100.02   -14 LegendNANA
11:00 -6.9 -10.4 76 0.0 27 16   100.02   -13 LegendNANA
12:00 -7.0 -11.1 73 0.0 28 18   100.01   -14 LegendNANA
13:00 -6.9 -11.0 73 0.0 27 19   100.05   -14 LegendNANA
14:00 -7.3 -11.5 72 0.0 27 14   100.13   -13 LegendNANA
15:00 -6.8 -11.2 70 0.2 26 15   100.21   -13 LegendNANA
16:00 -7.3 -11.4 72 0.0 26 17   100.31   -14 LegendNANA
17:00 -8.5 -11.3 80 0.0 25 13   100.43   -14 LegendNANA
18:00 -9.3 -12.1 80 0.0 25 17   100.53   -16 LegendNANA
19:00 -9.8 -12.6 80 0.0 25 18   100.62   -17 LegendNANA
20:00 -11.0 -13.4 83 0.0 24 16   100.70   -18 LegendNANA
21:00 -12.0 -14.2 83 0.0 25 14   100.77   -19 LegendNANA
22:00 -12.9 -15.0 84 0.0 24 11   100.81   -19 LegendNANA
23:00 -12.9 -14.8 85 0.0 23 12   100.86   -19 LegendNANA

Notes on Data Quality.

Legend

  • E = Estimated
  • M = Missing
  • NA = Not Available*
  • [empty] = Indicates an unobserved value
Date modified: